GFSFLT2_850_dewp_120.txt.gz
Dewpoint
8 8 8 9 8 8 9 8 8 8 8 8 6 5 3 3 2 1 1 1 1 1 0 -0 -1 -1 -12
7 7 7 8 8 8 8 8 8 8 8 7 6 5 4 3 2 1 1 1 1 0 -0 -0 -1 -12 -24
6 6 6 7 7 7 8 7 7 7 7 7 6 5 4 3 1 1 1 1 1 -0 -0 -1 -5 -23 -16
4 4 5 5 6 6 6 6 7 6 5 6 5 5 4 3 1 1 1 1 0 -0 -1 -2 -16 -25 -11
3 2 3 3 3 3 5 6 5 6 5 5 4 4 3 3 2 1 1 1 0 -0 -1 -9 -25 -25 -3
2 3 4 4 3 3 4 4 4 5 4 4 4 4 3 3 3 2 1 0 0 -1 -2 -20 -27 -22 1
1 1 1 2 3 3 3 3 3 4 4 4 4 4 3 3 3 2 1 0 0 -1 -5 -24 -27 -20 1
-1 -1 -0 1 2 2 2 3 2 3 3 3 4 4 3 3 2 1 1 0 0 -2 -19 -23 -28 -19 -0
-2 -2 -1 0 1 1 1 2 2 2 2 1 1 2 2 1 1 0 0 -0 -0 -11 -22 -21 -27 -25 -2
-5 -4 -3 -1 -0 1 1 1 1 1 1 1 0 1 -0 0 0 -0 -0 -0 -2 -19 -22 -20 -27 -28 -8
-3 -3 -4 -3 -1 -0 0 -0 1 1 1 0 -0 -0 -0 -0 -1 -1 -1 -2 -9 -22 -20 -18 -23 -29 -15
-3 -2 -2 -2 -1 -1 -1 -1 -1 -1 -0 -1 -1 -0 -1 -1 -3 -2 -2 -3 -14 -22 -19 -18 -20 -26 -22
-4 -3 -2 -2 -2 -1 -1 -1 -1 -1 -2 -1 -1 -1 -2 -1 -4 -16 -3 -6 -16 -19 -18 -17 -18 -21 -22
-4 -3 -2 -2 -2 -2 -2 -2 -2 -2 -2 -3 -3 -3 -2 -2 -2 -2 -12 -14 -17 -17 -15 -16 -17 -18 -20
-4 -4 -3 -3 -3 -3 -2 -3 -3 -3 -3 -3 -3 -3 -3 -4 -4 -3 -12 -17 -17 -15 -15 -16 -17 -18 -18
-5 -5 -4 -3 -3 -3 -3 -3 -4 -4 -4 -3 -3 -4 -3 -4 -6 -17 -17 -16 -15 -15 -16 -16 -16 -17 -19
-7 -6 -4 -4 -4 -4 -3 -4 -4 -5 -4 -4 -4 -4 -4 -4 -7 -17 -15 -16 -15 -16 -17 -17 -17 -17 -18

GFSFLT2_850_dewp_123.txt.gz
Dewpoint
8 8 7 7 6 7 7 6 7 7 8 8 8 8 8 8 7 5 4 3 2 2 0 0 1 0 -0
7 6 6 6 5 6 6 7 7 7 8 8 8 8 8 8 7 6 4 3 2 1 0 1 0 -1 -1
3 3 3 2 1 2 2 3 4 5 6 6 7 7 7 7 6 6 5 3 2 0 -0 0 -0 -1 -1
3 3 3 3 3 3 2 2 3 3 4 5 6 5 5 5 5 5 4 3 2 1 1 -0 -0 -1 -2
0 -0 -1 -0 1 1 2 3 3 3 3 3 4 5 4 4 4 4 4 3 2 2 1 -0 -0 -2 -6
0 1 1 -0 -1 0 1 1 2 2 2 3 3 4 4 4 4 4 4 4 3 2 2 0 -0 -2 -14
-1 -1 -1 -1 -1 -0 0 1 1 1 2 2 2 3 3 3 3 3 3 3 2 2 1 0 -1 -3 -24
-10 -6 -2 -2 -2 -2 -1 -0 0 1 1 2 2 2 2 2 2 1 2 1 1 1 1 0 -1 -12 -25
-10 -11 -10 -6 -4 -3 -2 -1 -1 -0 0 0 1 1 1 1 1 -0 -0 0 0 1 0 -1 -4 -20 -25
-12 -11 -6 -4 -2 -2 -2 -2 -1 -1 -0 0 0 1 -0 0 0 -0 -1 0 -0 -0 -0 -1 -21 -22 -28
-8 -5 -4 -4 -3 -2 -2 -2 -1 -1 -1 -1 -1 -0 -0 -1 -0 -1 -1 -1 -1 -1 -0 -10 -22 -20 -26
-5 -4 -4 -3 -3 -3 -2 -2 -1 -1 -2 -2 -2 -1 -1 -1 -1 -2 -3 -3 -3 -2 -5 -20 -17 -19 -28
-6 -5 -5 -4 -3 -2 -3 -2 -2 -2 -2 -2 -2 -2 -2 -2 -2 -2 -3 -4 -3 -3 -18 -19 -17 -20 -24
-7 -6 -6 -5 -4 -3 -3 -3 -3 -3 -3 -3 -3 -3 -3 -3 -3 -3 -4 -4 -4 -6 -16 -15 -16 -17 -19
-7 -7 -6 -5 -5 -3 -3 -4 -4 -4 -4 -4 -4 -3 -4 -4 -4 -4 -4 -4 -10 -10 -15 -15 -16 -16 -18
-8 -7 -7 -6 -5 -4 -4 -4 -4 -4 -4 -4 -4 -4 -4 -4 -4 -5 -5 -11 -13 -14 -14 -14 -16 -17 -17
-8 -7 -7 -6 -5 -5 -4 -4 -4 -5 -5 -5 -4 -5 -5 -5 -5 -7 -11 -14 -14 -14 -14 -15 -16 -17 -18

GFSFLT2_850_dewp_126.txt.gz
Dewpoint
8 8 8 8 7 5 3 2 1 2 5 6 6 6 7 8 8 8 8 8 8 6 5 5 3 1 -0
6 4 2 0 -1 -2 -4 -3 -2 -3 -1 0 3 5 6 6 7 7 7 7 7 6 5 4 3 1 0
-4 -6 -6 -8 -10 -12 -12 -11 -7 -3 -1 1 3 3 5 5 6 6 6 6 6 5 5 4 2 1 0
-15 -13 -8 -5 -1 -0 -1 -3 -2 -3 -3 -2 1 2 2 3 4 5 5 5 5 5 5 4 2 1 1
-11 -4 -2 -2 -2 -1 -0 -1 -1 1 -1 -2 -3 -1 -1 1 3 4 4 4 4 4 4 3 3 2 1
-9 -7 -5 -2 -2 -2 -3 -3 -2 -2 -1 -1 -1 -1 -1 -1 -0 2 2 3 4 4 3 2 2 2 1
-10 -11 -8 -8 -5 -4 -5 -4 -3 -3 -3 -2 -2 -1 -1 1 1 2 2 2 3 3 2 1 2 2 1
-13 -11 -10 -9 -7 -5 -3 -2 -2 -2 -4 -2 -1 -3 -1 -1 0 1 1 1 2 2 1 0 -0 0 0
-13 -9 -7 -4 -4 -4 -4 -3 -3 -3 -2 -2 -1 -1 -0 -1 0 0 1 0 0 1 -0 -0 -0 -0 0
-15 -12 -9 -6 -5 -4 -4 -3 -3 -3 -2 -2 -2 -1 -1 -1 -1 -1 -0 -1 -1 -1 -1 -1 -1 -0 -3
-11 -11 -10 -5 -5 -4 -4 -3 -3 -3 -3 -2 -3 -2 -2 -1 -1 -1 -1 -2 -2 -2 -2 -2 -1 -2 -18
-8 -7 -7 -7 -6 -5 -4 -3 -3 -2 -3 -2 -3 -2 -2 -2 -2 -2 -2 -2 -3 -3 -3 -3 -2 -16 -17
-7 -7 -7 -6 -5 -5 -5 -4 -4 -3 -3 -3 -3 -3 -3 -3 -3 -3 -3 -3 -4 -4 -4 -3 -13 -16 -16
-8 -8 -7 -7 -5 -5 -4 -4 -4 -4 -4 -4 -4 -4 -4 -4 -4 -4 -4 -4 -5 -4 -4 -13 -16 -15 -17
-8 -8 -8 -7 -7 -5 -5 -4 -4 -4 -4 -4 -4 -4 -4 -5 -4 -4 -4 -4 -5 -6 -7 -13 -14 -14 -15
-9 -9 -8 -8 -7 -7 -5 -5 -4 -5 -5 -5 -5 -5 -5 -5 -5 -5 -5 -5 -5 -6 -11 -12 -15 -14 -15
-9 -9 -8 -8 -7 -7 -6 -5 -5 -5 -5 -5 -5 -5 -6 -5 -6 -5 -5 -7 -9 -8 -11 -13 -15 -16 -15

GFSFLT2_850_dewp_129.txt.gz
Dewpoint
8 9 9 8 8 8 6 2 -2 -5 -5 -5 -5 -5 -4 0 5 5 6 7 8 8 8 8 8 7 6
7 7 4 0 -5 -10 -15 -18 -17 -18 -19 -18 -13 -6 -1 -0 2 2 5 6 6 7 7 7 7 6 6
-8 -13 -17 -19 -19 -17 -16 -17 -15 -12 -13 -16 -14 -11 -7 -2 1 2 3 4 5 6 6 6 6 6 6
-19 -20 -21 -23 -20 -17 -18 -15 -11 -15 -19 -16 -12 -5 -2 -2 -2 -1 1 2 2 5 5 5 5 6 5
-21 -19 -19 -19 -13 -13 -10 -13 -14 -14 -13 -10 -12 -8 -9 -5 -4 -2 -1 -1 1 3 4 4 4 5 4
-21 -19 -19 -15 -13 -11 -10 -9 -4 -7 -3 -3 -3 -6 -9 -5 -5 -1 -1 -0 1 3 3 3 3 4 4
-19 -15 -15 -14 -9 -8 -6 -4 -4 -5 -4 -3 -2 -4 -4 -3 -4 -2 -1 -1 0 1 2 2 2 2 2
-16 -16 -13 -8 -5 -4 -4 -4 -4 -4 -3 -3 -4 -4 -2 -2 -2 -1 -1 -0 0 1 1 2 2 2 1
-15 -13 -11 -10 -6 -5 -5 -4 -4 -4 -5 -4 -3 -2 -4 -2 -2 -1 -1 -1 -1 -1 1 1 1 1 1
-13 -12 -11 -9 -6 -5 -5 -5 -4 -4 -4 -3 -3 -3 -3 -2 -3 -2 -2 -2 -1 -1 0 -0 -1 -1 -0
-13 -13 -11 -9 -9 -7 -5 -5 -4 -4 -4 -4 -3 -3 -3 -3 -3 -3 -3 -3 -2 -1 -1 -2 -2 -2 -2
-12 -11 -10 -10 -9 -7 -6 -6 -5 -4 -4 -3 -4 -3 -3 -4 -4 -3 -4 -4 -3 -3 -3 -3 -3 -3 -3
-9 -8 -8 -8 -8 -6 -6 -6 -5 -5 -4 -3 -4 -4 -4 -4 -4 -4 -4 -4 -4 -4 -4 -4 -4 -4 -7
-9 -9 -9 -9 -8 -8 -6 -5 -5 -5 -4 -4 -4 -5 -5 -5 -5 -4 -4 -5 -4 -5 -5 -5 -4 -13 -14
-10 -10 -9 -9 -8 -8 -7 -7 -6 -5 -5 -5 -5 -5 -5 -5 -5 -5 -5 -5 -5 -5 -5 -7 -14 -14 -14
-10 -9 -9 -9 -8 -8 -8 -7 -6 -6 -5 -5 -5 -6 -6 -6 -6 -5 -5 -6 -6 -6 -6 -11 -13 -12 -12
-9 -9 -9 -8 -8 -8 -8 -8 -7 -6 -6 -6 -6 -6 -6 -7 -6 -6 -6 -6 -6 -6 -7 -13 -13 -13 -13

GFSFLT2_850_dewp_132.txt.gz
Dewpoint
9 9 8 8 8 8 8 7 6 1 -4 -11 -16 -19 -20 -19 -15 -9 -5 -4 -1 3 5 7 7 8 8
8 8 7 5 1 -9 -15 -19 -20 -20 -20 -21 -21 -18 -15 -12 -12 -8 -4 -0 0 1 3 4 6 7 8
1 -7 -17 -20 -22 -23 -25 -27 -25 -25 -25 -24 -23 -22 -20 -17 -9 -5 -4 -4 -1 1 2 2 5 6 8
-19 -22 -22 -22 -21 -20 -25 -23 -25 -24 -21 -20 -19 -20 -19 -15 -10 -8 -7 -5 -3 -1 -0 1 1 5 6
-20 -20 -19 -20 -18 -17 -15 -17 -19 -19 -17 -17 -17 -17 -17 -11 -9 -8 -4 -3 -2 -2 -1 -1 0 4 5
-23 -22 -20 -18 -18 -16 -14 -11 -5 -17 -9 -8 -8 -11 -9 -5 -4 -3 -3 -4 -4 -2 -2 0 2 2 2
-18 -17 -19 -17 -15 -13 -7 -4 -4 -8 -5 -4 -7 -6 -5 -6 -5 -3 -3 -2 -2 -1 -1 -0 0 2 2
-17 -15 -14 -14 -10 -6 -5 -4 -4 -6 -5 -4 -5 -3 -5 -5 -4 -2 -2 -2 -2 -1 -1 -1 0 1 2
-16 -15 -14 -13 -10 -6 -5 -5 -5 -5 -5 -5 -4 -4 -5 -6 -3 -3 -3 -3 -2 -3 -2 -2 -1 1 2
-16 -15 -14 -13 -10 -7 -7 -6 -5 -6 -5 -5 -5 -5 -5 -5 -4 -3 -3 -3 -3 -3 -1 -1 0 1 1
-15 -15 -13 -12 -10 -9 -7 -7 -6 -6 -5 -5 -5 -5 -5 -5 -5 -4 -4 -4 -4 -4 -2 -2 -1 -1 -1
-14 -14 -14 -12 -10 -9 -8 -6 -6 -6 -5 -4 -5 -5 -5 -5 -5 -5 -5 -4 -4 -4 -3 -3 -3 -3 -3
-14 -13 -12 -11 -10 -10 -9 -7 -6 -5 -5 -5 -5 -5 -5 -5 -5 -5 -5 -5 -5 -5 -4 -4 -4 -4 -4
-13 -12 -11 -11 -10 -9 -9 -8 -7 -6 -6 -5 -5 -5 -5 -5 -5 -5 -5 -5 -5 -6 -5 -5 -5 -5 -7
-12 -11 -11 -10 -10 -9 -8 -8 -8 -7 -7 -7 -6 -6 -6 -6 -6 -6 -5 -5 -6 -6 -6 -6 -10 -13 -13
-11 -11 -10 -10 -9 -9 -8 -8 -8 -8 -7 -7 -7 -7 -7 -7 -6 -6 -6 -6 -6 -6 -7 -6 -13 -13 -12
-12 -11 -10 -9 -9 -9 -9 -8 -8 -8 -7 -7 -7 -7 -7 -7 -7 -6 -6 -6 -7 -7 -6 -12 -14 -13 -8

GFSFLT2_850_dewp_135.txt.gz
Dewpoint
9 8 7 8 7 8 8 7 7 6 4 -1 -11 -18 -21 -23 -23 -21 -19 -17 -14 -16 -13 -9 -4 1 5
7 7 6 6 6 6 0 -14 -18 -20 -23 -25 -26 -27 -26 -25 -25 -24 -21 -12 -8 -8 -8 -6 -4 -2 -1
6 6 4 1 -11 -20 -22 -24 -24 -24 -25 -25 -24 -23 -23 -20 -17 -14 -12 -12 -11 -10 -9 -5 -5 -3 -1
-18 -19 -20 -21 -23 -24 -26 -26 -28 -26 -24 -22 -21 -21 -19 -15 -13 -10 -8 -8 -8 -6 -5 -3 -3 -3 -3
-23 -22 -21 -22 -20 -20 -21 -22 -24 -22 -20 -22 -22 -23 -17 -14 -11 -8 -5 -6 -6 -6 -6 -5 -4 -5 -4
-22 -20 -17 -16 -16 -15 -14 -11 -12 -17 -13 -20 -16 -16 -11 -9 -7 -6 -5 -3 -2 -2 -2 -3 -5 -3 -3
-17 -15 -14 -12 -13 -12 -10 -6 -5 -11 -7 -7 -13 -11 -10 -9 -6 -5 -2 -2 -3 -3 -3 -2 -2 -1 -1
-15 -15 -16 -15 -13 -11 -9 -8 -8 -10 -7 -6 -7 -7 -8 -7 -6 -4 -3 -4 -3 -3 -3 -4 -3 -3 -2
-17 -16 -16 -16 -15 -12 -10 -10 -8 -8 -10 -5 -5 -6 -6 -7 -5 -4 -5 -5 -4 -4 -4 -3 -2 -1 -1
-17 -17 -16 -15 -13 -12 -9 -8 -8 -7 -6 -6 -6 -6 -6 -6 -5 -6 -5 -5 -5 -4 -4 -3 -1 -1 0
-17 -16 -16 -16 -14 -12 -10 -8 -8 -8 -7 -6 -6 -6 -6 -6 -6 -6 -5 -5 -5 -5 -4 -4 -3 -2 -2
-16 -16 -15 -14 -13 -12 -10 -10 -8 -8 -8 -7 -7 -6 -6 -6 -6 -6 -5 -6 -5 -5 -5 -5 -4 -3 -3
-16 -15 -14 -13 -12 -11 -10 -9 -9 -8 -7 -7 -7 -6 -6 -6 -6 -6 -6 -6 -5 -5 -6 -6 -6 -6 -5
-15 -14 -13 -12 -12 -11 -10 -9 -9 -9 -8 -7 -7 -7 -6 -6 -6 -6 -6 -6 -6 -6 -6 -6 -6 -7 -6
-14 -14 -13 -11 -11 -10 -9 -9 -9 -8 -8 -8 -7 -7 -7 -7 -7 -6 -6 -6 -6 -6 -7 -7 -6 -13 -10
-13 -12 -12 -11 -10 -10 -9 -9 -9 -9 -8 -8 -7 -7 -8 -8 -7 -7 -7 -6 -6 -7 -7 -7 -12 -13 -12
-12 -12 -13 -12 -10 -9 -9 -9 -9 -9 -9 -8 -8 -7 -7 -7 -7 -7 -7 -7 -7 -7 -6 -10 -14 -11 -4

GFSFLT2_850_dewp_138.txt.gz
Dewpoint
8 8 7 7 7 6 6 7 7 7 7 7 -2 -14 -20 -23 -28 -29 -29 -29 -29 -29 -27 -24 -18 -19 -18
6 6 6 6 6 6 5 5 2 -5 -11 -25 -26 -27 -26 -28 -27 -24 -22 -22 -21 -21 -20 -20 -20 -19 -16
4 3 3 -1 -7 -9 -10 -11 -24 -25 -25 -26 -25 -23 -23 -22 -20 -18 -17 -17 -15 -12 -11 -12 -13 -11 -9
-5 -17 -21 -22 -22 -24 -27 -28 -26 -23 -24 -24 -21 -19 -20 -19 -18 -14 -11 -11 -9 -7 -7 -6 -6 -8 -8
-23 -25 -25 -24 -23 -22 -23 -24 -25 -23 -21 -19 -20 -21 -19 -16 -11 -9 -7 -7 -7 -2 -2 -3 -4 -5 -5
-23 -21 -19 -18 -19 -19 -20 -21 -23 -18 -17 -23 -18 -18 -17 -15 -9 -8 -8 -5 -2 -3 -3 -4 -5 -6 -5
-20 -19 -19 -18 -20 -19 -18 -16 -16 -18 -13 -19 -17 -16 -16 -14 -9 -8 -6 -3 -3 -4 -5 -4 -5 -4 -4
-18 -18 -18 -17 -16 -15 -13 -13 -14 -16 -11 -10 -12 -12 -16 -13 -8 -7 -4 -4 -5 -5 -5 -5 -3 -3 -3
-18 -18 -18 -17 -15 -15 -14 -14 -14 -16 -10 -6 -7 -9 -11 -12 -7 -7 -6 -6 -5 -5 -5 -5 -3 -3 -2
-16 -17 -17 -17 -16 -15 -13 -12 -10 -9 -10 -8 -8 -7 -7 -9 -8 -8 -7 -6 -6 -6 -5 -5 -4 -4 -3
-17 -17 -17 -17 -16 -14 -13 -11 -10 -10 -10 -8 -8 -7 -7 -7 -7 -7 -7 -6 -6 -6 -5 -5 -5 -4 -4
-16 -16 -17 -17 -15 -14 -12 -11 -10 -9 -9 -8 -8 -7 -7 -7 -7 -7 -7 -6 -6 -5 -5 -6 -6 -6 -5
-15 -16 -16 -15 -13 -12 -11 -11 -10 -9 -9 -8 -7 -7 -7 -7 -7 -7 -7 -6 -6 -6 -6 -6 -6 -6 -6
-15 -15 -15 -14 -12 -11 -10 -10 -10 -10 -9 -8 -7 -7 -7 -8 -7 -7 -7 -7 -6 -6 -6 -7 -7 -6 -8
-14 -15 -14 -13 -12 -11 -10 -10 -9 -9 -9 -9 -8 -7 -7 -7 -7 -7 -7 -7 -7 -7 -7 -7 -7 -12 -13
-14 -13 -13 -13 -13 -13 -10 -9 -9 -9 -9 -9 -8 -8 -8 -9 -8 -7 -7 -7 -7 -7 -8 -7 -12 -10 -5
-13 -12 -12 -12 -14 -14 -12 -9 -9 -9 -9 -9 -8 -8 -8 -8 -8 -8 -7 -7 -7 -9 -7 -9 -10 -5 -4

GFSFLT2_850_dewp_141.txt.gz
Dewpoint
7 8 7 7 7 6 6 6 6 6 6 7 7 6 1 -10 -13 -23 -28 -30 -30 -30 -30 -31 -25 -22 -21
7 6 6 5 5 5 5 5 1 0 2 -2 -13 -21 -20 -21 -26 -27 -27 -28 -26 -27 -25 -24 -25 -24 -23
5 4 2 0 -8 -15 -23 -25 -26 -26 -25 -26 -26 -27 -26 -25 -24 -22 -23 -24 -21 -18 -15 -11 -10 -10 -10
-3 -3 -5 -14 -20 -21 -24 -24 -24 -23 -23 -23 -21 -20 -20 -21 -20 -19 -18 -14 -11 -8 -7 -3 -3 -4 -6
-19 -20 -21 -20 -21 -22 -24 -25 -24 -22 -22 -21 -21 -21 -20 -19 -17 -14 -12 -10 -8 -3 -2 -3 -5 -6 -7
-21 -22 -21 -21 -21 -22 -23 -24 -21 -20 -22 -24 -22 -22 -20 -17 -15 -15 -12 -8 -3 -3 -3 -4 -6 -6 -5
-21 -20 -20 -20 -20 -20 -20 -21 -21 -19 -19 -24 -20 -20 -17 -16 -14 -12 -8 -3 -3 -3 -5 -6 -6 -6 -5
-20 -20 -19 -19 -19 -19 -18 -19 -20 -18 -15 -17 -17 -17 -17 -15 -14 -10 -7 -7 -6 -6 -5 -5 -6 -5 -5
-19 -19 -19 -18 -18 -18 -17 -17 -18 -18 -13 -10 -14 -14 -16 -15 -10 -7 -8 -8 -7 -7 -6 -6 -6 -5 -5
-17 -17 -17 -17 -17 -16 -15 -14 -13 -14 -12 -11 -10 -8 -7 -13 -12 -11 -9 -8 -7 -6 -6 -6 -5 -5 -5
-16 -16 -16 -16 -16 -15 -14 -13 -12 -12 -11 -9 -8 -8 -8 -7 -10 -10 -8 -8 -7 -7 -6 -6 -6 -6 -6
-15 -15 -16 -16 -16 -14 -13 -12 -11 -11 -10 -9 -8 -8 -8 -8 -8 -9 -8 -8 -7 -7 -6 -7 -6 -6 -6
-14 -15 -15 -15 -15 -13 -12 -11 -10 -10 -9 -9 -8 -8 -8 -8 -7 -8 -8 -8 -7 -7 -7 -7 -7 -7 -7
-13 -14 -14 -14 -13 -13 -13 -12 -11 -11 -9 -9 -8 -8 -8 -8 -7 -8 -8 -7 -7 -7 -7 -7 -7 -7 -9
-14 -14 -14 -14 -13 -13 -13 -13 -11 -10 -10 -9 -9 -9 -8 -8 -8 -8 -7 -7 -7 -7 -7 -8 -7 -11 -10
-14 -14 -14 -13 -13 -13 -14 -14 -11 -10 -10 -9 -9 -9 -9 -9 -9 -8 -8 -8 -8 -8 -8 -8 -8 -9 -5
-13 -13 -13 -13 -13 -13 -14 -14 -13 -10 -10 -9 -9 -9 -9 -9 -9 -8 -8 -8 -8 -8 -9 -8 -9 -8 -5